This is the latest recevied weather packets stored in our database for station/object HB9FHL-13. If no packets are shown the sender has not sent any weather packets the latest 10 day(s).
| Time | Temp. | Humidity | Pressure | Rain* | Wind** | Luminosity | Snow |
|---|---|---|---|---|---|---|---|
| 1787383272 | 15.56° C | - | 1016.3 hPa | 6.6 mm | - | - | - |
| 1787382973 | 15° C | - | 1017.7 hPa | 6.6 mm | - | - | - |
| 1787382969 | 15° C | - | 1017.7 hPa | 6.6 mm | - | - | - |
| 1787382373 | 14.44° C | - | 1019.9 hPa | 6.6 mm | - | - | - |
| 1787382368 | 14.44° C | - | 1019.9 hPa | 6.6 mm | - | - | - |
| 1787382069 | 15.56° C | - | 1015.8 hPa | 6.6 mm | - | - | - |
| 1787381772 | 15° C | - | 1023 hPa | 6.6 mm | - | - | - |
| 1787381769 | 15° C | - | 1023 hPa | 6.6 mm | - | - | - |
| 1787381165 | 15° C | - | 1017.3 hPa | 6.6 mm | - | - | - |
| 1787380864 | 15° C | - | 1018.8 hPa | 6.6 mm | - | - | - |
| 1787380563 | 14.44° C | - | 1020.8 hPa | 6.35 mm | - | - | - |
| 1787380267 | 14.44° C | - | 1019.9 hPa | 6.1 mm | - | - | - |
| 1787379953 | 15° C | - | 1009.1 hPa | 6.1 mm | - | - | - |
| 1787379656 | 14.44° C | - | 1016.3 hPa | 6.1 mm | - | - | - |
| 1787379652 | 14.44° C | - | 1016.3 hPa | 6.1 mm | - | - | - |
| 1787379355 | 14.44° C | - | 1020.6 hPa | 6.1 mm | - | - | - |
| 1787379352 | 14.44° C | - | 1020.6 hPa | 6.1 mm | - | - | - |
| 1787379051 | 14.44° C | - | 1024.2 hPa | 6.1 mm | - | - | - |
| 1787378754 | 15.56° C | - | 1020.8 hPa | 6.1 mm | - | - | - |
| 1787378751 | 15.56° C | - | 1020.8 hPa | 6.1 mm | - | - | - |
| 1787378451 | 14.44° C | - | 1019.3 hPa | 6.1 mm | - | - | - |
| 1787378153 | 14.44° C | - | 1019.8 hPa | 6.1 mm | - | - | - |
| 1787377853 | 13.33° C | - | 1017.6 hPa | 6.1 mm | - | - | - |
| 1787377848 | 13.33° C | - | 1017.6 hPa | 6.1 mm | - | - | - |
| 1787377548 | 13.89° C | - | 1016.1 hPa | 6.1 mm | - | - | - |
* Rain since midnight (hover to see other rain measurements)
** Current wind speed in m/s (hover to see current wind gust speed)